Back to catalog

SL-8 DEB

AliveLEO
NORAD 37886·DEBRIS·🇷🇺 Russia

Launched Dec 17, 1971 from Plesetsk Cosmodrome

Loading…

Next Passes (next 24 hours)

TLE

AgingSource: Space-Track

Epoch: Sep 11, 2026, 12:43 UTC

1 37886U 71114E   26254.53017407  .00000097  00000-0  39455-4 0  9998
2 37886  74.0298 347.7931 0024567 310.4359  49.4652 14.39806869693694

Track SL-8 DEB in real time with AllMySat

Download on the App Store